Change the Weather History Date:

Tuesday, March 20, 2012

  Actual Average Record
Temperature  
Mean Temperature 43 °F 44 °F  
Max Temperature 57 °F 60 °F 82 °F (1975)
Min Temperature 29 °F 28 °F 0 °F (1924)
Degree Days  
Heating Degree Days 22 21  
Month to date heating degree days 353 486  
Since 1 July heating degree days 4531 4797  
Cooling Degree Days 0 0  
Month to date cooling degree days 0 0  
Year to date cooling degree days 0 0  
Moisture  
Dew Point 23 °F    
Average Humidity 41    
Maximum Humidity 57    
Minimum Humidity 24    
Precipitation  
Precipitation 0.00 in 0.02 in 0.38 in (1957)
Month to date precipitation 0.14 0.56  
Year to date precipitation 0.34 1.23  
Snow  
Snow 0.00 in - - ()
Month to date snowfall 0.0  
Snow Depth 0.00 in    
Sea Level Pressure  
Sea Level Pressure 29.74 in    
Wind  
Wind Speed 19 mph (North)    
Max Wind Speed 38 mph    
Max Gust Speed 47 mph    
Visibility 9 miles    
Events      
T = Trace of Precipitation, MM = Missing Value Source: NWS Daily Summary

Daily Weather History Graph

Daily Weather History Graph

Search for Another Location

Airport or City:

Trip Planner

Search our weather history database for the weather conditions in past years. The results will help you decide how hot, cold, wet, or windy it might be!

Date:

Astronomy

Mar. 20, 2012 Rise Set
Actual Time 6:53 AM MDT 7:03 PM MDT
Civil Twilight 6:27 AM MDT 7:29 PM MDT
Nautical Twilight 5:56 AM MDT 8:00 PM MDT
Astronomical Twilight 5:25 AM MDT 8:31 PM MDT
Moon 5:35 AM MDT (3/20) 5:34 PM MDT (3/20)
Length of Visible Light 13h 02m
Length of Day
12h 09m
Waning Crescent, 3% of the Moon is Illuminated
Mar 20
Waning Crescent
Mar 22
New
Mar 30
First Quarter
Apr 6
Full
Apr 13
Last Quarter

Hourly Weather History & Observations

Time (MDT) Temp. Windchill Dew Point Humidity Pressure Visibility Wind Dir Wind Speed Gust Speed Precip Events Conditions
12:53 AM 37.9 °F 30.5 °F 10.0 °F 32% 29.51 in 10.0 mi SW 11.5 mph - N/A   Clear
1:53 AM 33.1 °F 26.9 °F 10.9 °F 40% 29.54 in 10.0 mi West 6.9 mph - N/A   Clear
2:53 AM 34.0 °F 29.8 °F 12.0 °F 40% 29.55 in 10.0 mi NNE 4.6 mph - N/A   Clear
3:53 AM 41.0 °F 31.6 °F 16.0 °F 36% 29.51 in 10.0 mi NNE 20.7 mph 29.9 mph N/A   Partly Cloudy
4:53 AM 42.1 °F 31.7 °F 19.0 °F 40% 29.55 in 9.0 mi North 27.6 mph 39.1 mph N/A   Clear
5:53 AM 39.9 °F 28.8 °F 21.9 °F 49% 29.60 in 10.0 mi North 27.6 mph 38.0 mph N/A   Clear
6:53 AM 39.0 °F 28.5 °F 24.1 °F 55% 29.67 in 10.0 mi North 23.0 mph 40.3 mph N/A   Clear
7:53 AM 41.0 °F 30.5 °F 27.0 °F 57% 29.75 in 10.0 mi North 26.5 mph 46.0 mph N/A   Scattered Clouds
8:53 AM 43.0 °F 32.2 °F 28.9 °F 58% 29.78 in 6.0 mi North 32.2 mph 40.3 mph N/A   Haze
9:53 AM 45.0 °F 34.4 °F 28.9 °F 53% 29.81 in 3.0 mi North 35.7 mph 44.9 mph N/A   Haze
10:53 AM 46.9 °F - 28.9 °F 50% 29.82 in 7.0 mi North 32.2 mph 46.0 mph N/A   Mostly Cloudy
11:53 AM 46.0 °F 36.5 °F 28.0 °F 50% 29.85 in 10.0 mi North 31.1 mph 40.3 mph N/A   Mostly Cloudy
12:53 PM 50.0 °F - 28.0 °F 43% 29.83 in 10.0 mi North 24.2 mph 31.1 mph N/A   Mostly Cloudy
1:53 PM 52.0 °F - 27.0 °F 38% 29.81 in 10.0 mi NNE 23.0 mph 34.5 mph N/A   Mostly Cloudy
2:53 PM 54.0 °F - 25.0 °F 33% 29.79 in 10.0 mi NE 18.4 mph 26.5 mph N/A   Partly Cloudy
4:53 PM 55.9 °F - 19.9 °F 25% 29.77 in 10.0 mi NNE 12.7 mph 25.3 mph N/A   Partly Cloudy
5:53 PM 54.0 °F - 21.0 °F 28% 29.79 in 10.0 mi North 16.1 mph - N/A   Partly Cloudy
6:53 PM 53.1 °F - 23.0 °F 31% 29.82 in 10.0 mi NNE 17.3 mph - N/A   Overcast
7:53 PM 51.1 °F - 23.0 °F 33% 29.85 in 10.0 mi NNE 10.4 mph 23.0 mph N/A   Overcast
8:53 PM 48.9 °F - 26.1 °F 41% 29.87 in 10.0 mi NE 8.1 mph - N/A   Mostly Cloudy
9:53 PM 44.1 °F 42.5 °F 26.1 °F 49% 29.89 in 10.0 mi North 3.5 mph - N/A   Clear
10:53 PM 39.9 °F 35.1 °F 24.1 °F 53% 29.91 in 10.0 mi NNW 6.9 mph - N/A   Clear